Wind_Speed
66 68 68 72 73 73 75 75 75 75 74 73 72 72 75 75 73 72 72 73 74 72 72 67 65 63 59 54 42 50 60 66 64 58 58 54 58 48 55 54 56 56 53
73 73 75 76 77 80 80 81 82 82 79 76 75 78 77 80 81 78 76 75 74 74 75 73 71 68 66 61 54 47 52 63 68 64 61 60 56 58 54 56 56 57 56
77 80 84 85 83 86 85 87 90 89 85 82 83 83 81 86 86 83 82 82 83 80 78 76 75 75 70 66 59 54 55 57 67 69 63 64 60 60 57 59 57 57 60
81 83 86 87 92 93 94 96 96 93 89 87 87 88 90 90 91 92 86 86 85 85 85 80 79 77 75 72 69 61 56 60 64 71 69 64 64 62 61 59 64 59 58
85 91 93 93 97 96 99 102 100 94 93 93 95 96 96 99 96 95 95 92 87 86 87 85 82 81 79 77 75 69 61 60 63 70 74 69 66 63 60 62 65 64 58
97 97 97 98 103 102 103 98 94 92 88 90 93 96 95 95 94 91 90 88 87 89 88 89 87 86 84 82 79 76 70 66 64 70 75 71 67 66 61 62 63 64 62
102 106 107 107 108 102 94 90 87 86 86 85 89 92 89 88 90 90 89 89 89 90 90 91 90 89 88 88 85 79 74 70 70 72 75 74 70 63 58 64 63 60 66
108 109 110 112 102 92 89 85 83 85 85 83 82 82 84 83 85 85 85 87 85 85 88 90 91 91 91 90 87 83 79 77 74 76 77 71 69 69 64 62 64 63 66
112 114 111 102 95 88 84 81 80 81 81 80 79 79 77 78 77 72 74 75 74 72 72 73 78 83 86 88 86 86 83 81 78 83 84 76 71 68 72 64 61 61 60
113 113 104 91 85 83 82 79 78 76 76 74 71 71 70 68 71 68 63 64 63 63 64 67 68 70 77 80 83 85 86 85 81 85 88 82 75 72 70 67 62 64 64
114 103 90 85 80 78 75 72 70 68 67 65 64 62 58 57 56 57 55 55 53 51 53 55 56 61 65 70 76 79 81 84 84 89 93 91 83 76 68 68 58 57 64
105 93 87 80 78 76 71 67 64 62 61 59 56 52 46 46 45 46 49 46 42 43 43 45 46 49 56 61 67 71 78 83 85 92 96 98 87 79 70 64 59 54 69
97 89 84 79 76 73 67 62 60 59 58 55 51 45 43 42 42 43 45 46 41 37 41 42 41 46 50 54 59 67 75 80 86 93 99 102 94 86 78 71 66 52 65
90 84 81 76 72 66 60 57 56 55 54 51 47 42 41 39 40 40 44 44 45 40 35 39 42 42 47 52 56 61 69 76 86 95 102 107 100 94 86 81 74 55 70
80 79 75 70 65 59 54 50 48 46 49 50 48 42 41 38 38 39 42 44 47 45 42 37 40 43 45 48 53 58 65 75 87 96 104 111 106 102 94 88 83 70 76
75 72 66 62 57 52 47 42 39 38 40 43 45 42 40 38 38 39 44 44 49 49 45 42 40 42 48 47 50 55 63 74 86 97 105 115 112 109 104 95 93 85 82
69 63 58 55 51 46 40 36 34 32 34 37 41 41 40 39 38 40 44 46 49 53 53 48 43 42 46 49 49 52 60 70 84 95 106 116 116 114 111 103 103 97 92
61 56 53 48 45 41 37 33 30 28 29 32 37 41 42 42 40 40 42 47 48 53 55 54 50 44 46 48 49 51 56 66 78 93 103 113 120 118 117 111 104 104 99
55 51 47 43 39 36 35 30 26 23 25 30 35 39 41 43 43 42 43 48 51 53 59 58 56 54 50 49 50 52 55 61 71 87 100 111 122 121 123 120 111 106 111
49 45 42 38 33 31 29 26 22 20 20 24 30 37 42 45 47 48 49 50 53 56 59 66 63 61 59 56 53 53 56 59 65 77 96 108 119 126 124 126 119 115 110
44 41 36 33 31 29 27 23 21 21 21 23 27 32 38 43 46 49 50 49 50 52 58 64 69 64 64 63 61 57 58 60 61 73 85 104 116 126 129 129 129 122 121
42 36 33 31 30 30 28 27 26 25 26 28 30 32 35 39 42 44 46 48 49 51 55 61 70 72 70 66 66 63 63 62 63 67 78 92 112 122 133 131 130 129 123
38 33 31 29 30 30 30 30 30 29 31 32 34 36 39 40 42 44 46 49 51 54 56 60 66 72 75 72 71 70 69 67 64 67 75 85 98 117 128 137 135 133 129
33 31 30 30 31 32 32 31 30 31 33 36 39 42 44 47 51 54 57 58 60 61 61 63 66 69 72 73 76 75 74 75 73 72 73 83 92 108 122 133 139 138 136
31 30 30 31 32 31 30 30 33 36 39 42 45 48 52 55 57 60 63 65 66 67 66 64 63 63 67 71 71 76 78 76 79 79 79 80 91 98 115 127 136 142 139
30 30 30 29 28 28 30 35 37 40 43 47 50 52 55 58 61 63 64 65 66 65 64 63 62 63 64 65 66 71 76 76 78 82 82 83 86 95 104 121 130 139 144
Wind_Direction
284 287 288 288 288 292 289 289 292 291 289 282 279 279 276 274 272 271 269 269 269 271 270 268 265 263 265 257 254 242 233 230 230 229 225 223 224 216 218 217 220 222 223
286 287 290 291 290 291 294 295 294 292 288 281 276 275 273 272 272 269 269 268 267 265 265 266 265 264 262 262 259 249 236 232 228 228 229 222 225 221 214 222 220 219 224
294 290 289 289 291 294 292 293 292 290 288 280 276 275 273 271 270 269 264 264 264 263 261 261 261 264 264 263 257 252 238 234 229 225 226 227 222 224 218 213 226 220 218
291 291 293 290 290 288 288 288 287 286 284 281 277 273 272 273 270 269 266 263 263 259 259 258 258 257 257 257 256 249 243 234 230 224 224 226 223 222 225 219 218 230 221
294 292 293 293 292 294 292 289 287 283 281 277 274 272 271 271 271 268 266 266 261 258 257 255 253 255 254 253 251 251 244 233 229 225 222 224 226 220 223 225 220 225 231
300 300 296 298 296 292 291 289 284 279 278 274 274 271 270 270 269 267 264 262 260 256 254 254 253 251 250 250 249 245 243 229 227 225 222 223 224 221 222 224 223 220 222
302 302 300 300 298 294 290 287 283 278 275 273 273 271 270 269 266 266 264 262 257 253 253 253 252 250 249 247 247 245 241 231 224 222 219 220 222 225 223 222 226 226 222
303 303 301 300 297 292 289 284 280 276 275 275 275 272 271 268 267 265 264 263 260 256 254 252 251 249 248 246 245 243 238 236 223 219 217 214 217 223 221 224 222 228 223
302 304 300 299 296 292 287 283 280 278 278 278 277 275 273 272 269 267 264 263 263 260 257 253 251 247 245 244 243 239 237 234 225 216 214 209 209 218 222 221 223 225 229
302 303 300 297 295 292 288 285 283 282 280 279 276 274 273 271 270 267 264 263 260 257 254 252 248 244 241 238 237 234 232 230 221 214 212 207 203 207 218 220 221 224 228
303 302 298 297 296 293 289 286 284 282 280 277 275 273 272 272 270 270 265 260 260 255 251 249 244 241 240 238 234 232 229 224 219 212 210 206 202 204 208 218 221 228 234
305 303 300 298 296 294 291 288 284 281 278 275 272 271 271 270 269 269 267 263 256 257 249 246 244 239 237 235 234 229 225 222 218 212 207 206 201 199 201 207 213 216 233
302 301 300 298 297 296 293 289 284 278 274 270 267 265 268 267 265 262 262 264 259 245 251 252 243 240 236 234 231 227 223 218 215 211 206 204 200 197 196 201 205 224 232
300 300 298 298 298 295 291 286 280 275 271 265 261 260 262 266 261 257 256 256 257 257 242 244 250 241 238 235 231 227 222 218 214 209 205 202 199 196 194 193 193 218 221
298 297 298 299 298 297 295 291 283 274 267 262 261 257 255 263 263 256 250 251 251 252 254 241 239 249 240 235 232 227 222 218 214 208 205 201 198 196 195 195 202 201 216
297 297 300 300 300 300 298 293 287 277 267 258 255 252 253 257 261 255 250 249 248 248 247 248 237 238 248 237 231 228 223 218 214 210 206 201 199 197 196 196 198 201 202
296 299 300 300 301 302 303 299 291 280 267 257 250 248 251 253 258 255 249 248 248 245 249 247 240 238 240 244 234 228 226 220 216 213 208 203 200 200 199 200 199 202 201
296 298 299 300 301 304 307 307 297 278 265 254 247 247 249 252 256 257 253 250 252 251 244 246 248 240 238 241 241 230 226 224 218 215 212 206 201 200 202 200 201 204 204
295 297 297 297 299 302 306 306 297 283 267 253 248 249 252 255 259 259 258 253 253 255 248 243 241 245 241 240 240 239 228 224 221 218 214 209 204 202 205 205 204 207 206
295 296 294 292 292 294 298 297 294 287 270 259 253 253 256 258 260 262 261 259 257 257 249 243 240 237 242 242 240 238 237 228 222 221 217 213 208 205 206 208 206 206 208
295 293 287 284 284 286 287 286 287 283 276 266 259 256 257 258 261 262 262 262 258 253 247 244 239 239 238 240 242 239 235 235 225 222 220 216 213 210 208 208 208 209 211
292 286 280 278 276 277 276 278 276 276 276 274 271 268 267 267 266 264 264 261 259 257 251 245 241 242 243 240 237 238 236 234 232 224 221 219 216 214 210 211 211 212 212
285 278 274 272 272 272 273 273 275 279 280 278 276 274 273 274 273 272 269 267 263 260 254 250 245 242 242 244 242 238 238 234 232 228 223 220 219 216 214 212 212 213 214
278 272 269 268 270 273 277 277 277 276 276 276 275 277 279 278 276 275 273 271 269 265 260 255 251 249 247 244 241 241 235 236 231 230 226 222 219 218 217 216 213 214 215
272 268 266 267 271 272 272 271 273 277 279 281 284 285 281 279 277 275 275 274 273 271 268 265 262 256 252 248 244 242 241 233 233 228 227 225 222 220 218 219 217 215 216
267 263 263 269 269 268 272 276 278 282 285 289 288 286 285 285 284 282 280 278 275 273 271 267 260 256 252 248 243 240 240 239 233 231 227 227 225 223 221 220 220 218 218
Height
10654 10650 10646 10641 10637 10632 10629 10625 10622 10619 10615 10613 10609 10607 10605 10603 10604 10607 10609 10609 10610 10611 10614 10619 10623 10627 10631 10637 10643 10646 10649 10655 10663 10669 10675 10681 10687 10693 10699 10704 10709 10714 10718
10636 10630 10626 10621 10617 10612 10607 10602 10599 10595 10593 10591 10588 10586 10584 10584 10584 10585 10587 10588 10588 10592 10595 10597 10603 10608 10613 10618 10623 10630 10635 10640 10648 10657 10662 10669 10674 10681 10687 10693 10699 10705 10710
10616 10610 10605 10600 10595 10589 10583 10579 10575 10572 10568 10566 10563 10561 10560 10560 10560 10561 10563 10565 10566 10569 10573 10577 10581 10585 10591 10598 10604 10611 10619 10624 10631 10641 10650 10655 10662 10668 10677 10683 10687 10694 10701
10595 10589 10582 10576 10569 10563 10557 10551 10548 10544 10542 10539 10536 10533 10533 10533 10534 10535 10536 10540 10542 10544 10549 10553 10558 10565 10571 10578 10584 10591 10599 10606 10613 10623 10634 10642 10648 10656 10664 10673 10678 10682 10689
10575 10567 10558 10551 10543 10535 10527 10519 10514 10513 10511 10509 10506 10503 10503 10504 10504 10504 10507 10510 10514 10518 10521 10527 10534 10539 10546 10554 10563 10569 10578 10587 10596 10606 10617 10627 10635 10644 10652 10660 10666 10671 10676
10549 10540 10532 10521 10513 10504 10495 10487 10481 10479 10479 10478 10475 10470 10470 10471 10471 10473 10474 10480 10484 10489 10493 10500 10506 10512 10520 10529 10537 10547 10555 10566 10576 10587 10599 10613 10622 10632 10639 10646 10653 10660 10666
10523 10513 10504 10493 10483 10474 10465 10458 10452 10449 10448 10449 10446 10440 10439 10441 10440 10441 10444 10448 10452 10458 10463 10472 10476 10483 10493 10502 10511 10520 10532 10545 10557 10568 10581 10596 10610 10619 10625 10632 10639 10647 10654
10498 10485 10474 10464 10452 10444 10437 10431 10425 10420 10417 10419 10417 10415 10411 10410 10411 10413 10414 10416 10422 10427 10432 10440 10447 10454 10462 10473 10483 10496 10507 10519 10533 10547 10562 10579 10593 10604 10611 10617 10626 10635 10644
10469 10457 10444 10432 10422 10414 10409 10402 10397 10393 10389 10390 10389 10387 10386 10381 10380 10388 10389 10389 10393 10400 10404 10410 10417 10424 10433 10443 10455 10465 10479 10494 10510 10523 10540 10559 10573 10586 10595 10606 10614 10624 10631
10442 10429 10415 10405 10396 10389 10382 10376 10372 10369 10366 10363 10363 10362 10361 10360 10357 10361 10366 10367 10370 10377 10380 10385 10390 10397 10403 10413 10424 10437 10450 10465 10485 10503 10521 10537 10552 10566 10581 10593 10600 10610 10618
10415 10400 10388 10380 10372 10365 10359 10352 10348 10345 10342 10341 10340 10341 10340 10339 10339 10339 10344 10347 10350 10356 10359 10363 10369 10375 10382 10392 10401 10414 10431 10445 10461 10480 10500 10516 10532 10548 10567 10585 10587 10603 10610
10384 10373 10363 10355 10348 10342 10335 10329 10325 10322 10321 10320 10321 10322 10323 10324 10324 10323 10324 10329 10336 10338 10341 10346 10352 10359 10364 10370 10379 10395 10405 10420 10437 10457 10475 10496 10514 10530 10547 10563 10578 10577 10585
10361 10350 10341 10334 10326 10320 10313 10307 10303 10301 10301 10302 10304 10306 10308 10310 10312 10312 10311 10312 10319 10328 10328 10331 10339 10343 10348 10354 10362 10371 10381 10398 10415 10433 10451 10473 10492 10508 10525 10543 10559 10572 10576
10338 10330 10321 10314 10307 10300 10294 10288 10284 10282 10282 10284 10288 10292 10294 10296 10298 10301 10301 10302 10304 10311 10321 10322 10324 10330 10335 10339 10346 10355 10367 10379 10391 10407 10427 10446 10469 10486 10503 10519 10523 10529 10556
10319 10310 10303 10296 10289 10282 10276 10271 10267 10266 10266 10269 10273 10278 10281 10284 10286 10289 10291 10292 10294 10299 10305 10313 10316 10317 10321 10328 10333 10341 10352 10360 10372 10388 10404 10423 10446 10464 10479 10491 10503 10516 10530
10301 10293 10287 10280 10274 10267 10262 10256 10253 10251 10252 10255 10259 10264 10269 10273 10275 10277 10280 10282 10283 10286 10294 10299 10306 10310 10309 10315 10321 10327 10334 10343 10355 10369 10384 10403 10424 10440 10456 10470 10484 10497 10505
10284 10278 10273 10267 10261 10255 10249 10245 10242 10240 10240 10243 10247 10252 10256 10260 10263 10266 10268 10271 10274 10275 10278 10285 10292 10298 10301 10302 10308 10313 10320 10328 10339 10352 10367 10385 10403 10419 10434 10448 10460 10474 10483
10270 10265 10260 10254 10249 10244 10240 10236 10233 10231 10232 10233 10237 10241 10245 10248 10252 10254 10258 10260 10263 10265 10267 10271 10275 10283 10288 10291 10294 10300 10306 10315 10324 10335 10349 10365 10382 10399 10414 10427 10438 10448 10462
10257 10252 10247 10243 10238 10235 10232 10230 10227 10225 10225 10226 10229 10232 10236 10239 10241 10244 10246 10249 10251 10253 10255 10257 10262 10267 10273 10279 10283 10287 10292 10299 10308 10317 10330 10346 10363 10378 10392 10405 10418 10427 10439
10243 10239 10235 10232 10229 10227 10225 10224 10221 10220 10219 10220 10223 10225 10227 10228 10229 10230 10231 10233 10236 10238 10240 10244 10246 10251 10256 10262 10268 10273 10278 10283 10292 10300 10312 10326 10342 10356 10369 10383 10399 10410 10420
10230 10227 10224 10222 10221 10220 10219 10217 10216 10214 10214 10214 10214 10215 10215 10216 10216 10216 10216 10216 10217 10219 10222 10227 10231 10234 10239 10245 10251 10257 10262 10266 10274 10282 10292 10306 10319 10336 10349 10363 10374 10387 10400
10218 10215 10213 10212 10212 10212 10211 10211 10210 10209 10208 10207 10206 10206 10206 10205 10204 10203 10202 10202 10202 10203 10205 10209 10214 10218 10222 10226 10232 10238 10245 10251 10256 10264 10271 10283 10296 10311 10326 10341 10354 10366 10378
10206 10204 10203 10203 10203 10203 10203 10203 10202 10201 10200 10199 10198 10196 10194 10193 10191 10189 10188 10187 10186 10186 10188 10189 10192 10196 10202 10206 10213 10219 10225 10233 10239 10244 10252 10262 10274 10287 10302 10316 10328 10344 10357
10195 10194 10194 10194 10193 10193 10194 10193 10193 10192 10191 10190 10188 10186 10184 10181 10178 10175 10172 10169 10167 10166 10167 10169 10171 10173 10177 10183 10189 10193 10203 10210 10218 10225 10232 10241 10250 10264 10277 10291 10308 10321 10333
10184 10184 10184 10184 10184 10185 10184 10184 10183 10182 10180 10178 10176 10173 10169 10165 10161 10158 10154 10150 10147 10144 10144 10146 10148 10150 10153 10157 10164 10170 10176 10186 10194 10203 10211 10219 10229 10240 10253 10266 10283 10299 10312
10173 10174 10174 10175 10175 10176 10175 10174 10173 10171 10169 10166 10161 10156 10150 10145 10140 10136 10131 10126 10123 10121 10119 10119 10121 10124 10126 10131 10138 10145 10152 10160 10171 10180 10189 10198 10207 10219 10230 10243 10257 10272 10288